Overview Statistics Trail Chart Weather Telemetry Raw packets
 

This is the latest recevied weather packets stored in our database for station/object IZ7EXI-13. If no packets are shown the sender has not sent any weather packets the latest 10 day(s).

<< 43 44 45 46 47 48 49 >>
Time Temp. Humidity Pressure Rain* Wind** Luminosity Snow
1787858342 30° C 63% 1020.1 hPa - - - -
1787857442 30° C 63% 1019.9 hPa - - - -
1787856542 30° C 60% 1019.6 hPa - - - -
1787855642 30° C 57% 1019.4 hPa - - - -
1787854741 30° C 55% 1019.3 hPa - - - -
1787853841 30.56° C 56% 1019.1 hPa - - - -
1787852941 30.56° C 58% 1018.9 hPa - - - -
1787852041 30.56° C 56% 1018.7 hPa - - - -
1787851177 31.11° C 56% 1018.5 hPa - - - -
1787851141 31.11° C 56% 1018.5 hPa - - - -
1787850240 31.67° C 54% 1018.4 hPa - - - -
1787849376 32.22° C 51% 1018.5 hPa - - - -
1787849340 32.22° C 51% 1018.5 hPa - - - -
1787848470 32.78° C 49% 1018.7 hPa - - - -
1787848440 32.78° C 49% 1018.7 hPa - - - -
1787847567 33.33° C 49% 1018.8 hPa - - - -
1787847540 33.33° C 49% 1018.8 hPa - - - -
1787846673 34.44° C 46% 1018.8 hPa - - - -
1787846639 34.44° C 46% 1018.8 hPa - - - -
1787845739 35° C 44% 1018.9 hPa - - - -
1787844871 34.44° C 44% 1018.9 hPa - - - -
1787844839 34.44° C 44% 1018.9 hPa - - - -
1787843939 35° C 44% 1019 hPa - - - -
1787843069 35.56° C 42% 1019 hPa - - - -
1787843039 35.56° C 42% 1019 hPa - - - -

* Rain since midnight (hover to see other rain measurements)
** Current wind speed in m/s (hover to see current wind gust speed)